Location: Peebles
(55.6412°N, 3.1714°W)
Time: 14:23:15
(UTC+01:00)

Resurs 01 Rocket - Pass Details

Date: 26 September 2021
Orbit: 634 x 644 km, 97.9° (Epoch: 17 October)

Event Time Altitude Azimuth Distance (km) Brightness Sun altitude
Exits shadow 19:43:13 - 91° (E) 2,161 3.7 -6.8°
Reaches altitude 10° 19:43:45 10° 85° (E) 2,030 3.6 -6.9°
Maximum altitude 19:46:15 15° 51° (NE) 1,719 3.4 -7.2°
Drops below altitude 10° 19:48:44 10° 16° (NNE) 2,035 4.1 -7.6°
Sets 19:51:46 0° 354° (N) 2,947 5.2 -8.0°
